www.pogodaiklimat.ru

Погода и климат >> Архив погоды >> Россия >> Якутия >> Юрты


ПОГОДА в Юртах

  • Прогноз погоды в Юртах
  • Монитор погоды в Юртах

АРХИВ ПОГОДЫ в Юртах

Время (UTC), дата Ветер
(напр.,м/с)
 
Видим.   Явления Облачность Т
(С)
Тd
(С)
f
(%)
Тe
(С)
Тes
(С)
Комфортность P
(гПа)
Po
(гПа)
Тmin
(С)
Tmax
(С)
R
(мм)
R24
(мм)
S
(см)
06 17.01 штиль 0 50 км ясно -52.9 -54.1 87 -53 -53 опасность
обморожения
1046.8 955.9
09 17.01 штиль 0 50 км ясно -54.8 -55.9 87 -55 -55 опасность
обморожения
1046.9 955.2 -52.9
12 17.01 штиль 0 50 км ясно -55.4 -58.3 70 -55 -55 опасность
обморожения
1046.4 954.5
15 17.01 штиль 0 50 км ясно -55.6 -58.3 72 -56 -56 опасность
обморожения
1044.7 953.0
18 17.01 штиль 0 50 км ясно -55.8 -58.3 73 -56 -56 опасность
обморожения
1043.8 952.0
21 17.01 штиль 0 50 км ясно -55.8 -58.3 73 -56 -56 опасность
обморожения
1043.4 961.6 -55.8 20
00 18.01 штиль 0 50 км ясно -55.8 -58.3 73 -56 -56 опасность
обморожения
1043.4 951.6
03 18.01 штиль 0 50 км ясно -53.5 -55.9 75 -54 -53 опасность
обморожения
1041.5 950.9
06 18.01 штиль 0 50 км ясно -54.0 -55.9 79 -54 -54 опасность
обморожения
1041.4 950.5
09 18.01 штиль 0 50 км ясно -55.4 -58.3 70 -55 -55 опасность
обморожения
1042.5 951.0 -53.5
12 18.01 штиль 0 50 км ясно -56.1 -58.3 76 -56 -56 опасность
обморожения
1042.9 951.2
15 18.01 штиль 0 50 км ясно -56.2 -58.3 77 -56 -56 опасность
обморожения
1043.0 951.3
18 18.01 штиль 0 50 км ясно -56.4 -58.3 79 -56 -56 опасность
обморожения
1043.2 951.3
21 18.01 штиль 0 50 км ясно -56.4 -58.3 79 -56 -56 опасность
обморожения
1043.9 961.9 -56.4 20
00 19.01 штиль 0 50 км ясно -56.5 -58.3 80 -57 -57 опасность
обморожения
1044.0 952.0
03 19.01 штиль 0 50 км ясно -53.7 -55.9 77 -54 -53 опасность
обморожения
1043.1 952.4
06 19.01 штиль 0 50 км ясно -53.9 -55.9 78 -54 -54 опасность
обморожения
1043.5 952.5
09 19.01 штиль 0 50 км ясно -54.7 -55.9 86 -55 -55 опасность
обморожения
1044.3 953.0 -53.7
12 19.01 штиль 0 50 км ясно -55.2 -58.3 68 -55 -55 опасность
обморожения
1045.3 953.2
15 19.01 штиль 0 50 км ясно -55.4 -58.3 70 -55 -55 опасность
обморожения
1044.6 952.9
18 19.01 штиль 0 50 км ясно -55.6 -58.3 72 -56 -56 опасность
обморожения
1044.4 952.7
21 19.01 штиль 0 50 км ясно -56.0 -58.3 75 -56 -56 опасность
обморожения
1044.8 952.9 -56.0 20
00 20.01 штиль 0 50 км ясно -56.1 -58.3 76 -56 -56 опасность
обморожения
1044.1 952.3 -56.1
03 20.01 штиль 0 50 км 3/0
[Ci fib]
-53.8 -55.9 77 -54 -53 опасность
обморожения
1042.6 951.7
06 20.01 штиль 0 50 км 4/0
[Ci fib]
-52.8 -54.1 86 -53 -53 опасность
обморожения
1040.9 950.5
09 20.01 штиль 0 50 км 4/0
[Ci fib]
-52.3 -54.1 81 -52 -52 опасность
обморожения
1039.9 949.6 -52.3
12 20.01 штиль 0 50 км 4/0
[Cs]
-51.7 -54.1 75 -52 -52 опасность
обморожения
1038.3 949.3
15 20.01 штиль 0 50 км ясно -52.3 -54.1 81 -52 -52 опасность
обморожения
1038.6 948.6
18 20.01 штиль 0 50 км ясно -53.6 -55.9 76 -54 -54 опасность
обморожения
1038.4 948.0
21 20.01 штиль 0 50 км ясно -54.0 -55.9 79 -54 -54 опасность
обморожения
1037.4 947.4 -54.0 20
00 21.01 штиль 0 50 км 6/0
[Ac trans]
-52.1 -54.1 79 -52 -52 опасность
обморожения
1037.2 947.5
03 21.01 СЗ 1 50 км 10/0
[Ac As]
-45.3 -47.2 81 -51 -51 опасность
обморожения
1034.4 947.4
06 21.01 СЗ 2 50 км 10/0
[As trans Cs]
-43.7 -45.7 80 -53 -53 опасность
обморожения
1032.9 946.7
09 21.01 штиль 0 20 км слаб. снег 10/0
[As trans]
-41.8 -43.8 81 -42 -42 опасность
обморожения
1032.3 946.7 -41.8 0.3
12 21.01 Ю 1 20 км слаб. снег 10/0
[As trans Cs]
-42.0 -44.4 77 -47 -47 опасность
обморожения
1033.4 947.7
15 21.01 штиль 0 50 км {снег} 10/0
[Cs]
-42.8 -45.0 79 -43 -43 опасность
обморожения
1034.9 948.7
18 21.01 штиль 0 50 км {снег} 10/0
[Cs]
-44.0 -46.4 77 -44 -44 опасность
обморожения
1036.3 949.6
21 21.01 штиль 0 50 км 10/0
[Cs]
-44.5 -46.4 81 -45 -45 опасность
обморожения
1038.6 951.6 -44.5 0.6 20
00 22.01 штиль 0 50 км 10/0
[Cs]
-45.0 -47.2 78 -45 -45 опасность
обморожения
1041.2 953.8 -45.0
03 22.01 штиль 0 50 км 10/0
[As trans]
-41.0 -43.2 79 -41 -41 опасность
обморожения
1040.6 954.7
06 22.01 штиль 0 50 км 10/0
[As op]
-40.2 -42.2 81 -40 -40 опасность
обморожения
1040.6 955.6
09 22.01 СЗ 1 50 км 10/0
[As op]
-37.7 -39.9 80 -43 -43 опасность
обморожения
1040.8 956.1 -37.7
12 22.01 штиль 0 50 км 10/0
[As op]
-36.1 -38.4 79 -36 -36 опасность
обморожения
1040.8 956.6
15 22.01 штиль 0 50 км 10/0
[Ac As]
-35.6 -38.1 78 -36 -36 опасность
обморожения
1040.9 956.7
18 22.01 штиль 0 50 км 10/0
[Ac As]
-35.0 -38.4 71 -35 -35 опасность
обморожения
1040.9 956.7
21 22.01 штиль 0 50 км 10/0
[Ac As]
-36.4 -38.8 78 -36 -36 опасность
обморожения
1041.5 957.1 -37.7 20
00 23.01 штиль 0 50 км 10/0
[Ac trans Ci fib]
-37.8 -39.9 81 -38 -38 опасность
обморожения
1042.8 957.7 -37.8
03 23.01 штиль 0 50 км 10/0
[Ac trans Ci fib]
-34.6 -37.1 78 -35 -34 опасность
обморожения
1041.3 957.5
06 23.01 штиль 0 50 км 10/0
[As op]
-32.0 -34.4 79 -32 -32 опасность
обморожения
1041.1 958.2
09 23.01 штиль 0 50 км 10/0
[As op]
-32.6 -34.8 81 -33 -33 опасность
обморожения
1040.7 957.6 -31.8
12 23.01 СЗ 1 50 км 10/0
[Ac As]
-32.6 -34.2 86 -37 -37 опасность
обморожения
1040.2 957.2
15 23.01 штиль 0 50 км 10/0
[Ac As]
-33.1 -34.8 85 -33 -33 опасность
обморожения
1039.9 956.7
21 23.01 штиль 0 20 км 10/0
[Ac As]
-34.2 -35.9 84 -34 -34 опасность
обморожения
1039.7 956.3 -34.2 20
00 24.01 н/о -34.8 1039.4 956.3
03 24.01 штиль 0 20 км слаб. снег 10/0
[As op]
-31.8 -33.5 85 -32 -32 опасность
обморожения
1038.6 955.9

 

Местоположение метеостанции Юрты (Якутия, Россия): широта 64.05 долгота 141.80 высота над уровнем моря 590 м.

В архиве по умолчанию представлена погода в Юртах за последнюю неделю. Архивные данные за месяц целиком и за предыдущие месяцы, начиная с января 2011 года, Вы можете получить, выбрав интересующий диапазон дат из раскрывающегося списка и нажав кнопку "Ввод!".


*Определитесь, кто Вы:
робот инопланетянин человек

Внимание! Время в таблицах - всемирное. Для получения местного времени необходимо прибавить поправку, которая равна 10 ч.

Смотрите также архив погоды в соседних городах и на ближайших метеорологических станциях:

Погода в Агаякане (Якутия, Россия) (80 км)
Погода в Усть-Нере (Якутия, Россия) (82 км)
Погода в Оймяконе (Якутия, Россия) (110 км)
Погода в Восточной (Якутия, Россия) (142 км)
Погода в Делянкире (Якутия, Россия) (187 км)
Погода в Усть-Моме (Якутия, Россия) (275 км)
Погода в Теплом Ключе (Якутия, Россия) (286 км)
Погода в Томпо (Якутия, Россия) (293 км)
Погода в Иэме (Якутия, Россия) (317 км)
Погода в Сусумане (Магаданская область, Россия) (344 км)

Пояснения к столбцам:

Ветер - указаны скорость ветра в м/с - средняя за 10 мин, порывы в срок и между сроками (в фигурных скобках) и направление, откуда дует ветер: С - северный, СВ - северо-восточный, В - восточный, ЮВ - юго-восточный, Ю - южный, ЮЗ - юго-западный, З - западный, СЗ - северо-западный.
Видимость - горизонтальная дальность видимости в метрах или километрах. При видимости от 1 до 10 км при отсутствии осадков обычно наблюдается дымка, при ухудшении видимости до 1 км и менее - туман. В сухую погоду видимость может ухудшаться дымом, пылью или мглою.
Явления - указаны атмосферные явления, наблюдавшиеся в срок или в последний час перед сроком; фигурными скобками обозначены явления, наблюдавшиеся между сроками (за 1-3 часа до срока); квадратными скобками обозначены град или гололедные отложения с указанием их диаметра в мм.
Облачность - указаны через наклонную черту общая и нижняя облачность в баллах и высота нижней границы облаков в метрах; квадратными скобками обозначены формы облаков: Ci - перистые, Cs - перисто-слоистые, Cc - перисто-кучевые, Ac - высококучевые, As - высокослоистые, Sc - слоисто-кучевые, Ns - слоисто-дождевые, Cu - кучевые, Cb - кучево-дождевые. Подробнее классификацию облаков см. в Атласе облаков (PDF).
T - Температура воздуха - температура, измеренная на высоте 2 м над землей.
Td - Температура точки росы - температура, при понижении до которой содержащийся в воздухе водяной пар достигнет насыщения.
f - Относительная влажность воздуха - влажноcть воздуха, измеренная на высоте 2 м над землей.
Te - Эффективная температура - температура, которую ощущает одетый по сезону человек в тени. Характеристика душности погоды. При расчете учитывается влияние влажности воздуха и скорости ветра на теплоощущения человека.
Tes - Эффективная температура на солнце - температура, которую ощущает человек, с поправкой на солнечный нагрев. Характеристика знойности погоды. Зависит от высоты солнца над горизонтом, облачности и скорости ветра. Ночью, в пасмурную погоду, а также при ветре 12 м/с и более поправка равна нулю.
P - Атмосферное давление - приведенное к уровню моря атмосферное давление.
Po - Атмосферное давление - измеренное на уровне метеостанции атмосферное давление.
Tmin - Минимальная температура - минимум температуры воздуха на высоте 2 м над землей.
Tmax - Максимальная температура - максимум температуры воздуха на высоте 2 м над землей.
R - Количество осадков - Количество выпавших осадков за период времени, мм. При наведении курсора мыши на число - период времени, за который выпало указанное количество осадков.
R24 - Количество осадков - Количество выпавших осадков за 24 часа, мм.
S - Снежный покров - Высота снежного покрова, см. При наведении курсора мыши на число - состояние снежного покрова и степень покрытия местности в баллах.